This is the latest recevied weather packets stored in our database for station/object KE8URB. If no packets are shown the sender has not sent any weather packets the latest 10 day(s).
| Time | Temp. | Humidity | Pressure | Rain* | Wind** | Luminosity | Snow |
|---|---|---|---|---|---|---|---|
| 1787618246 | 18.89° C | 82% | 1018.3 hPa | 0 mm | - | 0 W/m² | - |
| 1787617942 | 18.89° C | 82% | 1018.2 hPa | 0 mm | - | 0 W/m² | - |
| 1787617641 | 18.89° C | 80% | 1018.2 hPa | 0 mm | - | 0 W/m² | - |
| 1787617336 | 19.44° C | 79% | 1018.1 hPa | 0 mm | - | 0 W/m² | - |
| 1787617035 | 19.44° C | 79% | 1017.9 hPa | 0 mm | - | 0 W/m² | - |
| 1787616730 | 19.44° C | 77% | 1018.3 hPa | 0 mm | - | 0 W/m² | - |
| 1787616429 | 20° C | 77% | 1018 hPa | 0 mm | - | 1 W/m² | - |
| 1787616128 | 20° C | 75% | 1017.9 hPa | 0 mm | - | 2 W/m² | - |
| 1787615827 | 20.56° C | 75% | 1018.1 hPa | 0 mm | - | 3 W/m² | - |
| 1787615523 | 20.56° C | 74% | 1018 hPa | 0 mm | - | 6 W/m² | - |
| 1787615219 | 21.11° C | 73% | 1017.9 hPa | 0 mm | - | 9 W/m² | - |
| 1787614914 | 20.56° C | 73% | 1018 hPa | 0 mm | - | 16 W/m² | - |
| 1787614610 | 20.56° C | 73% | 1018 hPa | 0 mm | - | 12 W/m² | - |
| 1787614307 | 21.11° C | 72% | 1018 hPa | 0 mm | - | 16 W/m² | - |
| 1787614004 | 21.11° C | 72% | 1018.1 hPa | 0 mm | - | 18 W/m² | - |
| 1787613700 | 21.67° C | 69% | 1018 hPa | 0 mm | - | 20 W/m² | - |
| 1787613399 | 22.22° C | 68% | 1018 hPa | 0 mm | - | 35 W/m² | - |
| 1787613095 | 21.67° C | 68% | 1017.9 hPa | 0 mm | - | 36 W/m² | - |
| 1787612792 | 22.22° C | 67% | 1017.9 hPa | 0 mm | - | 39 W/m² | - |
| 1787612488 | 21.67° C | 66% | 1018 hPa | 0 mm | - | 65 W/m² | - |
| 1787612184 | 22.22° C | 66% | 1018.1 hPa | 0 mm | - | 47 W/m² | - |
| 1787611880 | 22.22° C | 63% | 1018.1 hPa | 0 mm | - | 91 W/m² | - |
| 1787611576 | 22.22° C | 64% | 1017.9 hPa | 0 mm | - | 85 W/m² | - |
| 1787611271 | 22.78° C | 62% | 1018 hPa | 0 mm | - | 115 W/m² | - |
| 1787610967 | 22.22° C | 64% | 1017.9 hPa | 0 mm | - | 122 W/m² | - |
* Rain latest hour (hover to see other rain measurements)
** Current wind speed in m/s (hover to see current wind gust speed)